GW7465 Weather Reports


time (UTC)temp
C
wind
direction
speed
KPH
gust
KPH
rain 1hr
cm
rain 24hr
cm
rain mn
cm
humidity
%
barometer
mb
20260831064001 15 165 4.8 9.7 0.28 0.00 0.71 94 1014.0
20260831063500 15 184 4.8 9.7 0.23 0.00 0.66 94 1013.9
20260831063000 15 117 3.2 9.7 0.20 0.00 0.61 94 1013.9
20260831062501 16 62 4.8 8.0 0.18 0.00 0.61 94 1013.9
20260831062001 16 105 3.2 8.0 0.15 0.00 0.58 94 1014.1
20260831061500 16 165 3.2 8.0 0.13 0.00 0.53 93 1014.2
20260831061001 16 153 4.8 11.3 0.08 0.00 0.51 93 1014.2
20260831060500 16 51 4.8 8.0 0.03 0.00 0.43 93 1014.2
20260831060001 16 281 4.8 11.3 0.00 0.00 0.43 93 1014.0
20260831055501 16 141 3.2 9.7 0.18 0.00 0.41 93 1014.0
20260831055000 16 188 4.8 9.7 0.13 0.00 0.33 92 1014.2
20260831054501 16 171 3.2 9.7 0.05 0.00 0.28 92 1014.0
20260831054000 16 193 4.8 11.3 0.00 0.00 0.23 92 1013.8
20260831053501 15 192 3.2 6.4 0.00 0.00 0.23 92 1013.6
20260831053001 15 123 3.2 8.0 0.00 0.00 0.23 93 1013.4
20260831052501 15 140 3.2 8.0 0.00 0.00 0.23 92 1013.3
20260831052000 15 269 3.2 8.0 0.00 0.00 0.23 91 1013.1
20260831051501 15 176 3.2 9.7 0.00 0.00 0.23 92 1013.0
20260831051001 15 23 3.2 8.0 0.00 0.00 0.23 91 1013.0
20260831050500 15 188 3.2 6.4 0.00 0.00 0.23 91 1012.8
20260831050001 15 159 3.2 6.4 0.00 0.00 0.23 91 1013.0
20260831045500 15 164 1.6 6.4 0.20 0.00 0.23 91 1013.1
20260831045000 16 157 3.2 6.4 0.20 0.00 0.23 91 1013.3
20260831044500 16 87 3.2 8.0 0.18 0.00 0.20 90 1013.4
20260831044001 16 177 3.2 9.7 0.18 0.00 0.20 90 1013.5
20260831043500 16 172 4.8 11.3 0.18 0.00 0.20 89 1013.6
20260831043001 16 171 4.8 8.0 0.18 0.00 0.20 89 1013.7
20260831042500 16 315 1.6 6.4 0.18 0.00 0.20 89 1013.7
20260831042001 16 169 3.2 6.4 0.15 0.00 0.18 88 1013.7
20260831041500 16 159 4.8 16.1 0.15 0.00 0.15 87 1013.7
20260831041000 16 79 4.8 16.1 0.13 0.00 0.15 87 1013.9
20260831040501 17 160 4.8 14.5 0.08 0.00 0.10 84 1013.9
20260831040001 17 273 3.2 6.4 0.00 0.00 0.03 80 1013.6
20260831035500 17 255 1.6 3.2 0.00 0.00 0.00 79 1013.1
20260831035001 17 249 3.2 6.4 0.00 0.00 0.00 79 1012.7
20260831034500 17 170 3.2 8.0 0.00 0.00 0.00 79 1012.5
20260831034001 16 172 3.2 8.0 0.00 0.00 0.00 80 1012.3
20260831033500 16 200 1.6 3.2 0.00 0.00 0.00 80 1012.2
20260831033001 16 333 1.6 3.2 0.00 0.00 0.00 80 1012.3
20260831032500 16 37 1.6 3.2 0.00 0.00 0.00 80 1012.4
20260831032000 16 198 1.6 4.8 0.00 0.00 0.00 80 1012.4
20260831031500 16 6 1.6 1.6 0.00 0.00 0.00 80 1012.3
20260831031000 16 135 1.6 4.8 0.00 0.00 0.00 80 1012.2
20260831030500 16 339 1.6 3.2 0.00 0.00 0.00 79 1012.3
20260831030001 16 238 1.6 3.2 0.00 0.00 0.00 80 1012.3
20260831025500 16 246 1.6 6.4 0.00 0.00 0.00 80 1012.5
20260831025000 16 234 1.6 6.4 0.00 0.00 0.00 80 1012.7
20260831024501 16 240 1.6 4.8 0.00 0.00 0.00 81 1012.8
20260831024000 16 231 3.2 8.0 0.00 0.00 0.00 81 1012.9
20260831023500 15 304 1.6 4.8 0.00 0.00 0.00 82 1012.9
20260831023001 15 278 1.6 6.4 0.00 0.00 0.00 82 1012.9
20260831022501 15 93 1.6 3.2 0.00 0.00 0.00 83 1013.0
20260831022000 15 43 1.6 4.8 0.00 0.00 0.00 84 1012.9
20260831021500 15 267 1.6 3.2 0.00 0.00 0.00 85 1013.0
20260831021000 15 117 1.6 1.6 0.00 0.00 0.00 84 1013.0
20260831020501 15 315 0.0 1.6 0.00 0.00 0.00 84 1012.9
20260831020001 15 230 1.6 3.2 0.00 0.00 0.00 85 1012.9
20260831015500 14 282 1.6 4.8 0.00 0.00 0.00 86 1013.2
20260831015000 13 198 1.6 4.8 0.00 0.00 0.00 89 1013.3
20260831014500 13 224 0.0 0.0 0.00 0.00 0.00 89 1013.3
20260831014001 13 205 1.6 1.6 0.00 0.00 0.00 89 1013.3
20260831013500 13 49 1.6 3.2 0.00 0.00 0.00 89 1013.4
20260831013001 13 280 1.6 3.2 0.00 0.00 0.00 89 1013.5
20260831012501 13 221 0.0 1.6 0.00 0.00 0.00 89 1013.5
20260831012000 13 130 0.0 0.0 0.00 0.00 0.00 89 1013.5
20260831011501 13 133 1.6 1.6 0.00 0.00 0.00 88 1013.5
20260831011001 13 142 0.0 0.0 0.00 0.00 0.00 88 1013.5
20260831010501 13 242 0.0 1.6 0.00 0.00 0.00 87 1013.7
20260831010001 14 310 0.0 0.0 0.00 0.00 0.00 87 1013.7
20260831005500 14 309 0.0 0.0 0.00 0.00 0.00 87 1013.7
20260831005001 14 142 0.0 1.6 0.00 0.00 0.00 87 1013.8
20260831004500 14 300 0.0 0.0 0.00 0.00 0.00 87 1013.9
20260831004001 14 315 0.0 1.6 0.00 0.00 0.00 87 1013.9
20260831003500 14 217 0.0 0.0 0.00 0.00 0.00 87 1014.0
20260831003001 14 299 1.6 3.2 0.00 0.00 0.00 88 1014.0
20260831002501 14 117 1.6 1.6 0.00 0.00 0.00 88 1014.1
20260831002000 15 125 0.0 1.6 0.00 0.00 0.00 88 1014.2
20260831001500 15 311 1.6 1.6 0.00 0.00 0.00 89 1014.2
20260831001000 15 135 1.6 1.6 0.00 0.00 0.00 88 1014.2
20260831000501 15 164 0.0 1.6 0.00 0.00 0.00 89 1014.1
20260831000000 15 309 1.6 3.2 0.00 0.00 0.00 89 1014.2
20260830235500 15 230 0.0 0.0 0.00 0.00 0.00 89 1014.3
20260830235000 14 117 0.0 0.0 0.00 0.00 0.00 90 1014.4
20260830234500 14 205 1.6 1.6 0.00 0.00 0.00 90 1014.4
20260830234000 14 142 1.6 1.6 0.00 0.00 0.00 90 1014.4
20260830233501 14 154 0.0 0.0 0.00 0.00 0.00 90 1014.4
20260830233000 14 19 0.0 0.0 0.00 0.00 0.00 89 1014.4
20260830232500 14 130 0.0 1.6 0.00 0.00 0.00 89 1014.4
20260830232001 14 315 1.6 1.6 0.00 0.00 0.00 89 1014.5
20260830231501 15 160 0.0 0.0 0.00 0.00 0.00 88 1014.6
20260830231001 15 212 0.0 0.0 0.00 0.00 0.00 88 1014.7
20260830230500 15 135 0.0 1.6 0.00 0.00 0.00 88 1014.6
20260830230001 15 315 0.0 0.0 0.00 0.00 0.00 88 1014.7
20260830225501 15 224 1.6 1.6 0.00 0.00 0.00 88 1014.7
20260830225000 15 142 0.0 0.0 0.00 0.00 0.00 88 1014.6
20260830224501 15 135 0.0 0.0 0.00 0.00 0.00 88 1014.5
20260830224000 15 135 0.0 0.0 0.00 0.00 0.00 88 1014.6
20260830223501 15 154 0.0 0.0 0.00 0.00 0.00 88 1014.6
20260830223000 15 242 0.0 0.0 0.00 0.00 0.00 87 1014.6
20260830222501 15 246 0.0 0.0 0.00 0.00 0.00 87 1014.6
20260830222000 15 246 0.0 0.0 0.00 0.00 0.00 86 1014.7
20260830221500 15 246 0.0 0.0 0.00 0.00 0.00 86 1014.6
20260830221001 15 224 0.0 0.0 0.00 0.00 0.00 87 1014.6
20260830220500 15 141 0.0 1.6 0.00 0.00 0.00 87 1014.6
20260830220001 15 304 0.0 0.0 0.00 0.00 0.00 87 1014.6
20260830215501 15 304 0.0 0.0 0.00 0.00 0.00 86 1014.7
20260830215001 15 304 0.0 1.6 0.00 0.00 0.00 86 1014.6
20260830214501 15 129 0.0 0.0 0.00 0.00 0.00 86 1014.6
20260830214000 15 315 0.0 0.0 0.00 0.00 0.00 85 1014.6
20260830213501 15 315 0.0 0.0 0.00 0.00 0.00 85 1014.6
20260830213001 15 315 0.0 1.6 0.00 0.00 0.00 85 1014.6
20260830212500 15 315 0.0 0.0 0.00 0.00 0.00 84 1014.6
20260830212001 15 180 0.0 0.0 0.00 0.00 0.00 85 1014.7
20260830211501 15 180 0.0 0.0 0.00 0.00 0.00 84 1014.6
20260830211001 15 224 0.0 0.0 0.00 0.00 0.00 84 1014.7
20260830210501 16 135 0.0 0.0 0.00 0.00 0.00 83 1014.6
20260830210000 16 135 0.0 0.0 0.00 0.00 0.00 83 1014.7
20260830205501 16 135 0.0 0.0 0.00 0.00 0.00 83 1014.7
20260830205000 16 135 0.0 0.0 0.00 0.00 0.00 82 1014.6
20260830204500 16 224 0.0 0.0 0.00 0.00 0.00 82 1014.7
20260830204001 16 3 0.0 0.0 0.00 0.00 0.00 82 1014.7
20260830203501 16 224 0.0 0.0 0.00 0.00 0.00 82 1014.7
20260830203001 16 315 0.0 0.0 0.00 0.00 0.00 81 1014.7
20260830202501 16 304 0.0 0.0 0.00 0.00 0.00 81 1014.6
20260830202001 16 304 0.0 0.0 0.00 0.00 0.00 80 1014.6
20260830201501 16 304 0.0 0.0 0.00 0.00 0.00 80 1014.6
20260830201001 17 304 0.0 0.0 0.00 0.00 0.00 79 1014.6
20260830200501 17 135 0.0 0.0 0.00 0.00 0.00 79 1014.6
20260830200001 17 135 0.0 0.0 0.00 0.00 0.00 79 1014.6
20260830195501 17 217 0.0 0.0 0.00 0.00 0.00 79 1014.6
20260830195000 17 217 0.0 0.0 0.00 0.00 0.00 77 1014.6
20260830194501 17 217 0.0 0.0 0.00 0.00 0.00 78 1014.6
20260830194000 17 217 0.0 0.0 0.00 0.00 0.00 78 1014.6
20260830193500 17 135 0.0 0.0 0.00 0.00 0.00 77 1014.6
20260830193000 17 150 0.0 0.0 0.00 0.00 0.00 76 1014.6
20260830192501 17 150 0.0 0.0 0.00 0.00 0.00 75 1014.6
20260830192001 18 135 0.0 0.0 0.00 0.00 0.00 76 1014.5
20260830191501 18 135 0.0 0.0 0.00 0.00 0.00 75 1014.5
20260830191000 18 354 0.0 0.0 0.00 0.00 0.00 73 1014.5
20260830190501 18 354 0.0 0.0 0.00 0.00 0.00 74 1014.5
20260830190000 18 354 0.0 1.6 0.00 0.00 0.00 74 1014.4
20260830185500 18 147 0.0 0.0 0.00 0.00 0.00 72 1014.4
20260830185001 18 147 0.0 0.0 0.00 0.00 0.00 73 1014.3
20260830184500 18 224 0.0 0.0 0.00 0.00 0.00 71 1014.2
20260830184000 19 224 0.0 0.0 0.00 0.00 0.00 70 1014.2
20260830183501 19 322 0.0 0.0 0.00 0.00 0.00 70 1014.1
20260830183001 20 322 0.0 0.0 0.00 0.00 0.00 69 1014.0
20260830182501 20 129 0.0 0.0 0.00 0.00 0.00 69 1014.0
20260830182000 20 129 0.0 0.0 0.00 0.00 0.00 69 1014.0
20260830181501 20 242 0.0 0.0 0.00 0.00 0.00 68 1013.9
20260830181000 20 142 0.0 0.0 0.00 0.00 0.00 67 1013.9
20260830180501 21 142 0.0 0.0 0.00 0.00 0.00 66 1013.8
20260830180001 21 142 0.0 0.0 0.00 0.00 0.00 66 1013.8
20260830175500 21 326 0.0 0.0 0.00 0.00 0.00 65 1013.7
20260830175001 21 326 0.0 0.0 0.00 0.00 0.00 64 1013.7
20260830174501 22 315 0.0 0.0 0.00 0.00 0.00 62 1013.6
20260830174001 22 309 0.0 0.0 0.00 0.00 0.00 60 1013.5
20260830173500 22 135 0.0 0.0 0.00 0.00 0.00 59 1013.4
20260830173001 22 217 0.0 0.0 0.00 0.00 0.00 59 1013.4
20260830172501 23 224 0.0 1.6 0.00 0.00 0.00 57 1013.4
20260830172001 23 15 3.2 4.8 0.00 0.00 0.00 55 1013.3
20260830171501 23 12 3.2 8.0 0.00 0.00 0.00 54 1013.2
20260830171000 23 297 3.2 8.0 0.00 0.00 0.00 52 1013.1
20260830170501 23 333 3.2 6.4 0.00 0.00 0.00 51 1013.2
20260830170001 23 327 4.8 8.0 0.00 0.00 0.00 50 1013.1
20260830165501 23 329 3.2 4.8 0.00 0.00 0.00 51 1013.0
20260830165001 23 336 4.8 9.7 0.00 0.00 0.00 50 1013.1
20260830164500 24 329 3.2 8.0 0.00 0.00 0.00 50 1013.0
20260830164001 24 326 4.8 8.0 0.00 0.00 0.00 49 1013.0
20260830163500 24 333 4.8 9.7 0.00 0.00 0.00 49 1013.0
20260830163001 24 296 4.8 9.7 0.00 0.00 0.00 49 1013.0
20260830162501 25 310 6.4 12.9 0.00 0.00 0.00 50 1013.0
20260830162001 25 296 4.8 8.0 0.00 0.00 0.00 50 1013.0
20260830161501 25 343 8.0 14.5 0.00 0.00 0.00 49 1012.9
20260830161001 25 315 4.8 11.3 0.00 0.00 0.00 49 1012.9
20260830160500 25 319 3.2 6.4 0.00 0.00 0.00 48 1012.8
20260830160001 25 351 3.2 6.4 0.00 0.00 0.00 48 1012.7
20260830155501 25 321 6.4 11.3 0.00 0.00 0.00 47 1012.8
20260830155001 25 332 4.8 8.0 0.00 0.00 0.00 48 1012.8
20260830154500 25 330 3.2 6.4 0.00 0.00 0.00 47 1012.8
20260830154001 25 309 4.8 6.4 0.00 0.00 0.00 47 1012.8
20260830153501 25 291 4.8 8.0 0.00 0.00 0.00 47 1012.8
20260830153001 25 328 3.2 8.0 0.00 0.00 0.00 46 1012.8
20260830152501 25 285 4.8 8.0 0.00 0.00 0.00 45 1012.8
20260830152001 26 341 4.8 9.7 0.00 0.00 0.00 44 1012.8
20260830151501 26 268 3.2 8.0 0.00 0.00 0.00 43 1012.8
20260830151000 26 325 4.8 9.7 0.00 0.00 0.00 42 1012.8
20260830150501 26 321 4.8 14.5 0.00 0.00 0.00 42 1012.8
20260830150001 26 341 4.8 9.7 0.00 0.00 0.00 42 1012.8
20260830145501 26 325 4.8 11.3 0.00 0.00 0.00 43 1012.8
20260830145000 25 264 4.8 11.3 0.00 0.00 0.00 43 1012.8
20260830144502 26 344 4.8 11.3 0.00 0.00 0.00 43 1012.8
20260830144001 26 316 4.8 14.5 0.00 0.00 0.00 42 1012.8
20260830143501 26 273 4.8 9.7 0.00 0.00 0.00 42 1012.7
20260830143001 26 311 6.4 14.5 0.00 0.00 0.00 42 1012.7
20260830142501 26 324 4.8 11.3 0.00 0.00 0.00 43 1012.8
20260830142001 26 348 4.8 11.3 0.00 0.00 0.00 42 1012.9
20260830141501 26 319 4.8 11.3 0.00 0.00 0.00 41 1012.7
20260830141001 26 1 6.4 12.9 0.00 0.00 0.00 41 1012.7
20260830140501 26 310 6.4 19.3 0.00 0.00 0.00 41 1012.7
20260830140001 26 282 4.8 11.3 0.00 0.00 0.00 41 1012.7
20260830135501 26 298 8.0 14.5 0.00 0.00 0.00 41 1012.8
20260830135001 26 307 4.8 12.9 0.00 0.00 0.00 41 1012.7
20260830134501 26 275 4.8 14.5 0.00 0.00 0.00 42 1012.8
20260830134001 26 322 6.4 14.5 0.00 0.00 0.00 42 1012.8
20260830133501 26 301 6.4 19.3 0.00 0.00 0.00 42 1012.8
20260830133001 27 291 4.8 11.3 0.00 0.00 0.00 41 1012.7
20260830132501 27 199 4.8 12.9 0.00 0.00 0.00 41 1012.6
20260830132001 26 185 4.8 9.7 0.00 0.00 0.00 44 1012.7
20260830131501 26 314 4.8 11.3 0.00 0.00 0.00 49 1012.8
20260830131000 25 324 6.4 12.9 0.00 0.00 0.00 52 1012.8
20260830130501 25 322 3.2 9.7 0.00 0.00 0.00 53 1012.8
20260830130001 25 315 3.2 11.3 0.00 0.00 0.00 53 1012.9
20260830125501 25 308 4.8 11.3 0.00 0.00 0.00 54 1012.9
20260830125001 25 343 4.8 12.9 0.00 0.00 0.00 54 1013.0
20260830124501 25 24 4.8 8.0 0.00 0.00 0.00 54 1013.0
20260830124001 25 316 3.2 8.0 0.00 0.00 0.00 54 1013.0
20260830123501 25 322 3.2 4.8 0.00 0.00 0.00 56 1013.1
20260830123001 25 324 3.2 6.4 0.00 0.00 0.00 58 1013.2
20260830122501 24 32 3.2 6.4 0.00 0.00 0.00 58 1013.2
20260830122001 23 312 4.8 11.3 0.00 0.00 0.00 59 1013.3
20260830121501 24 340 4.8 9.7 0.00 0.00 0.00 59 1013.3
20260830121001 23 326 6.4 14.5 0.00 0.00 0.00 60 1013.2
20260830120501 23 308 4.8 8.0 0.00 0.00 0.00 63 1013.4
20260830120000 22 341 4.8 11.3 0.00 0.00 0.00 63 1013.3
20260830115500 23 289 3.2 9.7 0.00 0.00 0.00 63 1013.4
20260830115000 23 332 4.8 14.5 0.00 0.00 0.00 62 1013.4
20260830114500 23 353 4.8 8.0 0.00 0.00 0.00 62 1013.4
20260830114001 23 331 4.8 14.5 0.00 0.00 0.00 63 1013.4
20260830113501 23 310 6.4 11.3 0.00 0.00 0.00 63 1013.4
20260830113001 23 319 6.4 11.3 0.00 0.00 0.00 61 1013.3
20260830112500 23 190 4.8 14.5 0.00 0.00 0.00 59 1013.3
20260830112001 25 297 6.4 12.9 0.00 0.00 0.00 54 1013.2
20260830111500 25 180 3.2 11.3 0.00 0.00 0.00 52 1013.1
20260830111001 25 300 4.8 11.3 0.00 0.00 0.00 53 1013.1
20260830110500 25 327 6.4 17.7 0.00 0.00 0.00 53 1013.1
20260830110001 25 341 6.4 19.3 0.00 0.00 0.00 53 1013.1
20260830105501 24 167 6.4 12.9 0.00 0.00 0.00 54 1013.1
20260830105001 24 253 4.8 14.5 0.00 0.00 0.00 54 1013.0
20260830104501 24 344 4.8 14.5 0.00 0.00 0.00 55 1013.1
20260830104001 23 345 6.4 22.5 0.00 0.00 0.00 55 1013.1
20260830103501 23 345 4.8 16.1 0.00 0.00 0.00 55 1013.1
20260830103000 23 305 6.4 17.7 0.00 0.00 0.00 54 1013.1
20260830102501 23 349 6.4 17.7 0.00 0.00 0.00 54 1013.1
20260830102001 23 233 6.4 17.7 0.00 0.00 0.00 54 1013.2
20260830101501 24 290 8.0 22.5 0.00 0.00 0.00 53 1013.1
20260830101001 24 286 4.8 12.9 0.00 0.00 0.00 54 1013.2
20260830100501 24 173 6.4 19.3 0.00 0.00 0.00 54 1013.2
20260830100000 23 196 6.4 19.3 0.00 0.00 0.00 54 1013.2
20260830095500 23 209 8.0 17.7 0.00 0.00 0.00 53 1013.1
20260830095001 24 68 6.4 20.9 0.00 0.00 0.00 52 1013.2
20260830094501 24 137 8.0 22.5 0.00 0.00 0.00 53 1013.1
20260830094001 24 40 4.8 19.3 0.00 0.00 0.00 53 1013.1
20260830093501 24 203 4.8 14.5 0.00 0.00 0.00 53 1013.1
20260830093001 24 327 8.0 22.5 0.00 0.00 0.00 52 1013.2
20260830092501 25 163 6.4 16.1 0.00 0.00 0.00 52 1013.1
20260830092001 25 313 6.4 17.7 0.00 0.00 0.00 52 1013.1
20260830091501 24 186 6.4 16.1 0.00 0.00 0.00 53 1013.1
20260830091000 24 170 6.4 19.3 0.00 0.00 0.00 53 1013.0
20260830090501 24 208 6.4 16.1 0.00 0.00 0.00 54 1013.0
20260830090000 24 211 6.4 22.5 0.00 0.00 0.00 54 1013.0
20260830085501 23 300 6.4 16.1 0.00 0.00 0.00 56 1013.0
20260830085000 23 178 6.4 24.1 0.00 0.00 0.00 56 1013.0
20260830084501 23 226 4.8 12.9 0.00 0.00 0.00 56 1013.0
20260830084001 23 283 8.0 16.1 0.00 0.00 0.00 56 1013.0
20260830083500 23 341 8.0 20.9 0.00 0.00 0.00 56 1013.0
20260830083001 23 307 4.8 11.3 0.00 0.00 0.00 56 1013.0
20260830082500 23 240 6.4 17.7 0.00 0.00 0.00 56 1012.9
20260830082000 23 286 6.4 24.1 0.00 0.00 0.00 56 1013.0
20260830081500 23 272 9.7 24.1 0.00 0.00 0.00 56 1012.9
20260830081001 23 261 8.0 22.5 0.00 0.00 0.00 57 1013.0
20260830080501 23 196 9.7 19.3 0.00 0.00 0.00 57 1013.0
20260830080001 23 351 4.8 14.5 0.00 0.00 0.00 58 1013.0
20260830075500 23 335 6.4 17.7 0.00 0.00 0.00 58 1012.9
20260830075000 22 296 3.2 11.3 0.00 0.00 0.00 59 1013.0
20260830074501 22 158 8.0 19.3 0.00 0.00 0.00 59 1013.0
20260830074001 22 163 6.4 17.7 0.00 0.00 0.00 59 1012.9
20260830073500 22 207 4.8 14.5 0.00 0.00 0.00 60 1012.9
20260830073001 22 179 6.4 19.3 0.00 0.00 0.00 61 1012.9
20260830072500 22 135 6.4 22.5 0.00 0.00 0.00 61 1012.8
20260830072000 22 187 6.4 27.4 0.00 0.00 0.00 62 1012.8
20260830071500 22 184 8.0 20.9 0.00 0.00 0.00 62 1012.8
20260830071000 22 323 4.8 16.1 0.00 0.00 0.00 63 1012.7
20260830070501 22 175 4.8 12.9 0.00 0.00 0.00 63 1012.7
20260830070001 22 26 4.8 17.7 0.00 0.00 0.00 63 1012.6
20260830065501 21 200 6.4 14.5 0.00 0.00 0.00 64 1012.5
20260830065001 21 186 8.0 20.9 0.00 0.00 0.00 63 1012.5
20260830064500 21 223 6.4 16.1 0.00 0.00 0.00 64 1012.5